STARLINK-4030 (52698 NORAD) Tracking and Keplerian Element Data

This shows tracking and keplerian element data for the satellite.

Feedback or suggestion? Click here.




ElementValue
Catalog52698
NameSTARLINK-4030
Epoch Orbit130
Epoch Day192.91667824
Epoch Year2022
RAAN31.0364
Inclination53.2175
Eccentricity0.000167
Argument of Perigee46.1974
Mean Anonmoly74.7115
Mean Motion15.33741215
Decay Rate-0.01068257
L11 52698U 22053AU 22192.91667824 -.01068257 00000+0 -35182-1 0 9991
L22 52698 53.2175 31.0364 0001670 46.1974 74.7115 15.33741215 1308

Live tracking and technical data element details for STARLINK-4030 (NORAD 52698). STARLINK-4030 can be tracked NOW for your location showing map with azimuth and elevation plus other details from your city location.

Track the satellite on the map from your city or location and see movement details for azimuth, elevation, latitude, longitude, range, height, and movement on the map or in text.







IsCatalogInMostPopularTable: catalog: 52698, numindb: 10
Update: records affected: 1



GetName: 52698 STARLINK-4030

Hit Count: updated at: Sun, 14 Aug 2022 00:45:26 GMT